Location: Bennemühlen
(52.5740°N, 9.7135°E)
Time: 01:48:28
(UTC+00:00)

A-11 Canister half - Pass Details

Date: 21 February 2026
Orbit: 1512 x 1687 km, 47.2° (Epoch: 8 March)

Event Time Altitude Azimuth Distance (km) Brightness Sun altitude
Rises 17:17:35 0° 180° (S) 4,925 11.8 -5.6°
Reaches altitude 10° 17:22:21 10° 161° (SSE) 3,945 11.1 -6.4°
Maximum altitude 17:27:56 16° 127° (SE) 3,445 10.4 -7.2°
Drops below altitude 10° 17:33:30 10° 93° (E) 3,931 10.5 -8.0°
Enters shadow 17:34:04 - 90° (E) 4,029 10.5 -8.1°
Sets 17:38:12 0° 75° (ENE) 4,901 - -8.7°
